TimePDT,TemperatureF,Dew PointF,Humidity,Sea Level PressureIn,VisibilityMPH,Wind Direction,Wind SpeedMPH,Gust SpeedMPH,PrecipitationIn,Events,Conditions,WindDirDegrees,DateUTC
12:53 AM,39.0,25.0,57,29.95,10.0,SE,3.5,-,N/A,,Partly Cloudy,140,2012-11-02 07:53:00
1:53 AM,35.1,25.0,67,29.99,10.0,WSW,3.5,-,N/A,,Mostly Cloudy,250,2012-11-02 08:53:00
2:53 AM,33.1,23.0,66,30.00,10.0,SSW,6.9,-,N/A,,Scattered Clouds,200,2012-11-02 09:53:00
3:53 AM,33.1,24.1,70,30.01,10.0,SE,4.6,-,N/A,,Overcast,140,2012-11-02 10:53:00
4:53 AM,34.0,24.1,67,30.02,10.0,South,6.9,-,N/A,,Overcast,170,2012-11-02 11:53:00
5:53 AM,33.1,24.1,70,30.05,10.0,South,6.9,-,N/A,,Overcast,180,2012-11-02 12:53:00
6:53 AM,30.9,21.0,67,30.08,10.0,South,6.9,-,N/A,,Mostly Cloudy,170,2012-11-02 13:53:00
7:53 AM,30.0,19.9,66,30.11,10.0,SSE,8.1,-,N/A,,Mostly Cloudy,160,2012-11-02 14:53:00
8:53 AM,39.0,24.1,55,30.11,10.0,South,6.9,-,N/A,,Clear,180,2012-11-02 15:53:00
9:53 AM,46.0,28.0,50,30.08,10.0,NE,4.6,-,N/A,,Clear,40,2012-11-02 16:53:00
10:53 AM,50.0,28.0,43,30.07,10.0,Variable,3.5,-,N/A,,Clear,0,2012-11-02 17:53:00
11:53 AM,53.1,27.0,37,30.04,10.0,NNE,4.6,-,N/A,,Clear,30,2012-11-02 18:53:00
12:53 PM,57.0,25.0,29,30.00,10.0,NNE,3.5,-,N/A,,Clear,30,2012-11-02 19:53:00
1:53 PM,59.0,25.0,27,29.98,10.0,NNE,3.5,-,N/A,,Clear,30,2012-11-02 20:53:00
2:53 PM,60.1,24.1,25,29.97,10.0,Calm,Calm,-,N/A,,Clear,0,2012-11-02 21:53:00
3:53 PM,61.0,23.0,23,29.97,10.0,Calm,Calm,-,N/A,,Clear,0,2012-11-02 22:53:00
4:53 PM,59.0,23.0,25,29.97,10.0,Calm,Calm,-,N/A,,Clear,0,2012-11-02 23:53:00
5:53 PM,50.0,24.1,36,30.03,10.0,Calm,Calm,-,N/A,,Clear,0,2012-11-03 00:53:00
6:53 PM,39.9,23.0,51,30.11,10.0,SSE,9.2,-,N/A,,Clear,150,2012-11-03 01:53:00
7:53 PM,37.9,21.9,53,30.15,10.0,SSE,6.9,-,N/A,,Clear,160,2012-11-03 02:53:00
8:53 PM,34.0,19.9,56,30.13,10.0,South,9.2,-,N/A,,Clear,170,2012-11-03 03:53:00
9:53 PM,33.1,21.0,61,30.13,10.0,South,6.9,-,N/A,,Clear,170,2012-11-03 04:53:00
10:53 PM,30.9,19.0,61,30.12,10.0,SSE,10.4,-,N/A,,Clear,160,2012-11-03 05:53:00
11:53 PM,28.9,19.0,67,30.13,10.0,South,8.1,-,N/A,,Clear,170,2012-11-03 06:53:00